Regional Weather Roundup
Issued by NWS Albany, NY

Home | Current Version | Previous Version | Text Only | Print | Product List | Glossary On
Versions: 1 2 3 4 5 6 7 8 9 10 11 12 13 14 15 16 17 18 19 20 21 22 23 24 25 26 27
000
ASUS41 KALY 261610
RWRALY

NEW YORK STATE HOURLY WEATHER ROUNDUP
NATIONAL WEATHER SERVICE ALBANY NY
1100 AM EST SUN FEB 26 2017

NOTE: "FAIR" INDICATES FEW OR NO CLOUDS BELOW 12,000 FEET WITH NO
SIGNIFICANT WEATHER AND/OR NO OBSTRUCTIONS TO VISIBILITY.

NYZ032-033-038>043-046>054-057>066-NYZ062>081-082-084-261700-
EAST


CITY           SKY/WX    TMP DP  RH WIND       PRES   REMARKS
ALBANY         PTSUNNY   34  14  43 NW25G36   29.98R WCI  21
GLENS FALLS    PTSUNNY   34  13  41 NW20G31   29.93R WCI  23
POUGHKEEPSIE   CLOUDY    38  16  40 W13G24    29.97S WCI  30
MONTGOMERY     CLOUDY    37  17  44 NW10G22   29.98R WCI  30
WHITE PLAINS   PTSUNNY   36  17  46 W16G28    29.96R WCI  26
ISLIP          PTSUNNY   39  19  44 NW20G33   29.96R WCI  29
NEW YORK CITY  MOSUNNY   41  17  38 NW18G29   29.99R
CENTRAL PARK   SUNNY     38  15  39 VRB7G24   30.02R WCI  33
$$

NYZ005>009-017-018-044>046-055-056-261700-
CENTRAL


CITY           SKY/WX    TMP DP  RH WIND       PRES   REMARKS
FULTON         LGT SNOW  28  24  85 NW7       30.03R VSB 3/4 WCI  21
SYRACUSE       FLURRIES  31  23  72 W20       30.02R WCI  19
ROME           CLOUDY    30  19  63 NW16      30.01R WCI  19
ELMIRA         CLOUDY    31  15  52 W10G17    30.02S WCI  22
BINGHAMTON     FLURRIES  25  18  74 NW13G20   29.96R WCI  14
MONTICELLO     MOSUNNY  N/A N/A N/A NW14G28   29.95R
$$

NYZ026>034-041>043-087-261700-
NORTH


CITY           SKY/WX    TMP DP  RH WIND       PRES   REMARKS
WATERTOWN      PTSUNNY   31  18  58 W15G24    30.01R WCI  20
FORT DRUM      NOT AVBL
OGDENSBURG     FAIR      32  13  46 W13G24    29.97R WCI  22
MASSENA        SUNNY     28  12  51 W21G26    29.95R WCI  15
SARANAC LAKE   MOSUNNY   22  12  65 W14G25    29.82R WCI   9
PLATTSBURGH    CLOUDY    32  14  47 W9        29.88R WCI  24
$$

NYZ001>004-010>016-019>021-085-261700-
WEST


CITY           SKY/WX    TMP DP  RH WIND       PRES   REMARKS
NIAGARA FALLS  CLOUDY    31  18  58 W16       30.05R WCI  20
BUFFALO        PTSUNNY   31  12  45 W16       30.04S WCI  20
DUNKIRK        CLOUDY    29  15  56 W12G20    30.09R WCI  19
JAMESTOWN      CLOUDY    23  16  74 SW12G20   30.03R WCI  12
WELLSVILLE     CLOUDY    26  13  57 NW18G24   29.98S WCI  13
ROCHESTER      CLOUDY    32  20  61 W17       30.04S WCI  21
PENN YAN       CLOUDY    31  16  54 W12G18    30.02R WCI  22
$$

             KEY
       WCI = WIND CHILL INDEX
       VSB = VISIBILITY
       HX  = HEAT INDEX
$$




USA.gov is the U.S. government's official web portal to all federal, state and local government web resources and services.